EW5058 Weather Reports


Display with metric or nautical units.
time (UTC)temp
F
wind
direction
speed
MPH
gust
MPH
rain 1hr
in
rain 24hr
in
rain mn
in
humidity
%
barometer
mb
20260506002819 71 158 2.0 5.0 0.00 0.00 0.00 67 1010.7
20260506001819 72 180 4.0 5.0 0.00 0.00 0.00 66 1010.7
20260506000819 72 180 4.0 7.0 0.00 0.00 0.00 65 1010.5
20260505235820 73 180 6.0 13.0 0.00 0.00 0.00 64 1010.4
20260505234819 73 180 4.0 7.0 0.00 0.00 0.00 64 1010.4
20260505233819 73 203 3.0 7.0 0.00 0.00 0.00 62 1010.3
20260505232819 74 180 3.0 6.0 0.00 0.00 0.00 61 1010.4
20260505231819 74 180 3.0 5.0 0.00 0.00 0.00 61 1010.3
20260505230819 75 180 3.0 7.0 0.00 0.00 0.00 59 1010.3
20260505225819 75 180 2.0 5.0 0.00 0.00 0.00 58 1010.2
20260505224819 76 203 4.0 8.0 0.00 0.00 0.00 57 1010.3
20260505223819 76 180 7.0 17.0 0.00 0.00 0.00 55 1010.2
20260505222819 76 180 4.0 8.0 0.00 0.00 0.00 53 1010.3
20260505221819 77 135 2.0 5.0 0.00 0.00 0.00 52 1010.4
20260505220819 77 180 3.0 5.0 0.00 0.00 0.00 51 1010.1
20260505215839 77 203 3.0 4.0 0.00 0.00 0.00 51 1010.3
20260505214819 78 180 4.0 5.0 0.00 0.00 0.00 50 1010.1
20260505213818 78 180 6.0 14.0 0.00 0.00 0.00 51 1010.1
20260505212819 79 180 4.0 6.0 0.00 0.00 0.00 50 1010.1
20260505211839 79 158 5.0 8.0 0.00 0.00 0.00 49 1010.0
20260505210819 79 180 3.0 6.0 0.00 0.00 0.00 50 1009.9
20260505205819 80 180 4.0 7.0 0.00 0.00 0.00 49 1010.0
20260505204818 80 158 5.0 11.0 0.00 0.00 0.00 49 1009.9
20260505203819 81 135 6.0 9.0 0.00 0.00 0.00 48 1010.0
20260505202819 81 180 8.0 15.0 0.00 0.00 0.00 46 1010.0
20260505201819 81 180 6.0 10.0 0.00 0.00 0.00 48 1010.0
20260505200819 81 203 4.0 6.0 0.00 0.00 0.00 47 1010.2
20260505195819 81 180 8.0 12.0 0.00 0.00 0.00 47 1010.3
20260505194819 81 180 6.0 12.0 0.00 0.00 0.00 48 1010.6
20260505193819 81 180 6.0 9.0 0.00 0.00 0.00 49 1010.7
20260505192819 81 203 8.0 11.0 0.00 0.00 0.00 49 1011.0
20260505191818 81 203 6.0 17.0 0.00 0.00 0.00 48 1011.0
20260505190839 82 180 3.0 6.0 0.00 0.00 0.00 56 1011.1
20260505185819 81 180 6.0 11.0 0.00 0.00 0.00 49 1011.3
20260505184819 82 158 6.0 10.0 0.00 0.00 0.00 49 1011.4
20260505183818 81 158 3.0 7.0 0.00 0.00 0.00 52 1011.5
20260505182819 81 180 3.0 7.0 0.00 0.00 0.00 51 1011.7
20260505181819 81 180 4.0 5.0 0.00 0.00 0.00 51 1011.8
20260505180838 81 158 7.0 12.0 0.00 0.00 0.00 50 1011.8
20260505175818 81 180 7.0 14.0 0.00 0.00 0.00 52 1011.9
20260505174819 81 158 6.0 9.0 0.00 0.00 0.00 49 1011.8
20260505173819 82 203 5.0 10.0 0.00 0.00 0.00 47 1011.9
20260505172839 81 180 2.0 4.0 0.00 0.00 0.00 50 1012.0
20260505171818 80 180 5.0 12.0 0.00 0.00 0.00 50 1012.1
20260505170819 81 180 3.0 7.0 0.00 0.00 0.00 50 1012.3
20260505165818 81 180 5.0 13.0 0.00 0.00 0.00 50 1012.6
20260505164818 80 180 4.0 7.0 0.00 0.00 0.00 52 1012.7
20260505163818 79 180 3.0 5.0 0.00 0.00 0.00 53 1012.6
20260505162818 79 180 6.0 13.0 0.00 0.00 0.00 51 1012.7
20260505161818 79 225 3.0 7.0 0.00 0.00 0.00 52 1012.8
20260505160820 79 203 2.0 4.0 0.00 0.00 0.00 53 1012.8
20260505152838 76 158 6.0 9.0 0.00 0.00 0.00 57 1012.9
20260505151818 75 158 3.0 5.0 0.00 0.00 0.00 57 1013.1
20260505150818 76 158 3.0 5.0 0.00 0.00 0.00 57 1013.0
20260505124820 68 203 3.0 6.0 0.00 0.00 0.00 66 1013.2
20260505123838 67 180 3.0 7.0 0.00 0.00 0.00 67 1013.2
20260505122820 67 203 4.0 8.0 0.00 0.00 0.00 67 1013.2
20260505121818 66 158 3.0 6.0 0.00 0.00 0.00 68 1013.0
20260505120838 66 180 4.0 7.0 0.00 0.00 0.00 69 1012.9
20260505115818 65 180 2.0 5.0 0.00 0.00 0.00 69 1012.8
20260505114820 65 203 4.0 5.0 0.00 0.00 0.00 70 1012.9
20260505113840 65 180 1.0 4.0 0.00 0.00 0.00 71 1012.8
20260505112820 64 203 4.0 5.0 0.00 0.00 0.00 71 1012.7
20260505111900 63 180 2.0 5.0 0.00 0.00 0.00 73 1012.6
20260505110820 62 135 1.0 4.0 0.00 0.00 0.00 75 1012.6
20260505101819 61 0.0 2.0 0.00 0.00 0.00 76 1012.3
20260505100820 62 203 1.0 2.0 0.00 0.00 0.00 75 1012.3
20260505095820 62 135 2.0 6.0 0.00 0.00 0.00 75 1012.2
20260505094819 62 180 1.0 2.0 0.00 0.00 0.00 75 1012.2
20260505093819 62 158 2.0 4.0 0.00 0.00 0.00 75 1012.2
20260505092820 62 158 1.0 3.0 0.00 0.00 0.00 75 1012.1
20260505091820 63 0.0 1.0 0.00 0.00 0.00 74 1012.2
20260505090819 63 180 1.0 2.0 0.00 0.00 0.00 73 1012.1
20260505085820 63 158 2.0 2.0 0.00 0.00 0.00 72 1012.0
20260505084819 63 158 2.0 4.0 0.00 0.00 0.00 72 1012.0
20260505083819 63 180 1.0 4.0 0.00 0.00 0.00 71 1012.0
20260505082819 64 0.0 1.0 0.00 0.00 0.00 71 1012.0
20260505081820 64 158 1.0 4.0 0.00 0.00 0.00 71 1012.0
20260505080839 64 180 6.0 11.0 0.00 0.00 0.00 71 1011.9
20260505075819 64 180 1.0 2.0 0.00 0.00 0.00 71 1011.9
20260505074839 64 203 2.0 3.0 0.00 0.00 0.00 71 1011.9
20260505073819 64 180 3.0 5.0 0.00 0.00 0.00 71 1011.7
20260505072839 64 180 1.0 2.0 0.00 0.00 0.00 72 1011.6
20260505071819 64 180 1.0 3.0 0.00 0.00 0.00 72 1011.6
20260505070819 64 180 1.0 3.0 0.00 0.00 0.00 73 1011.7
20260505065820 64 180 1.0 3.0 0.00 0.00 0.00 72 1011.7
20260505064819 64 0.0 1.0 0.00 0.00 0.00 72 1011.7
20260505063819 64 180 4.0 9.0 0.00 0.00 0.00 72 1011.7
20260505062819 64 135 3.0 5.0 0.00 0.00 0.00 72 1011.7
20260505061819 64 180 2.0 6.0 0.00 0.00 0.00 72 1011.5
20260505060840 64 180 3.0 6.0 0.00 0.00 0.00 72 1011.6
20260505055819 64 180 3.0 5.0 0.00 0.00 0.00 73 1011.6
20260505054819 64 180 2.0 4.0 0.00 0.00 0.00 74 1011.6
20260505053819 64 158 2.0 5.0 0.00 0.00 0.00 76 1011.7
20260505052839 64 180 3.0 7.0 0.00 0.00 0.00 77 1011.7
20260505051819 64 113 2.0 7.0 0.00 0.00 0.00 78 1011.6
20260505050819 63 180 2.0 4.0 0.00 0.00 0.00 79 1011.6
20260505040818 63 203 2.0 6.0 0.00 0.00 0.00 79 1011.6
20260505035818 63 180 2.0 4.0 0.00 0.00 0.00 79 1011.5
20260505034818 63 180 1.0 2.0 0.00 0.00 0.00 78 1011.5
20260505033820 63 158 1.0 5.0 0.00 0.00 0.00 79 1011.5
20260505032820 63 158 3.0 5.0 0.00 0.00 0.00 80 1011.5
20260505031818 63 180 1.0 2.0 0.00 0.00 0.00 80 1011.4
20260505030818 63 158 2.0 4.0 0.00 0.00 0.00 79 1011.3
20260505025818 63 180 1.0 2.0 0.00 0.00 0.00 79 1011.4
20260505024818 63 158 1.0 3.0 0.00 0.00 0.00 78 1011.5
20260505023820 63 180 1.0 3.0 0.00 0.00 0.00 78 1011.5
20260505022818 64 180 2.0 4.0 0.00 0.00 0.00 77 1011.3
20260505021900 64 203 1.0 3.0 0.00 0.00 0.00 75 1011.4
20260505020820 64 158 1.0 3.0 0.00 0.00 0.00 74 1011.4
20260505015838 64 158 1.0 2.0 0.00 0.00 0.00 73 1011.5
20260505014820 65 180 2.0 6.0 0.00 0.00 0.00 72 1011.4
20260505013820 65 135 2.0 6.0 0.00 0.00 0.00 71 1011.4
20260505012820 65 180 3.0 7.0 0.00 0.00 0.00 71 1011.3
20260505011820 65 158 1.0 3.0 0.00 0.00 0.00 70 1011.2
20260505010820 66 0.0 2.0 0.00 0.00 0.00 68 1011.1
20260505005818 66 158 3.0 6.0 0.00 0.00 0.00 66 1011.0
20260505004820 66 158 2.0 4.0 0.00 0.00 0.00 63 1011.0
20260505003820 67 203 1.0 3.0 0.00 0.00 0.00 59 1011.0